Weather in Kolesnikovo

Russia / Ryazan Oblast     54°59′31″N   40°49′41″E
temp.,
°C
wind,
m/s
gust,
m/s
humid.,
%
clouds,
%
prec.,
mm/h
press.,
hPa
HPBL,
m
1 march, mon
mon100:00−11nne129744 0.0 102121
03:00−12nnw129761 0.0 102221
06:00−13nw129777 0.0 102420
09:00−10w119574 0.0 102561
12:00−4wsw249184 0.0 1024384
15:00−2wsw479185 0.1 1022573
18:00−2wsw4991100 0.1 1020638
21:00−1wsw41192100 0.1 1018628
2 march, tue
tue200:00+1wsw51194100 0.0 1014663
03:00+1w51295100 0.1 1012570
06:00+1w51293100 0.1 1009815
09:00+1w51299100 0.2 1008690
12:00+1wnw41094100 0.3 1006840
15:00+1nw499182 0.6 1006958
18:00−1nw4118790 0.2 1007578
21:00−3nw3119292 0.3 1008385
3 march, wed
wed300:00−2wnw41193100 0.1 1008600
03:00−3nw51293100 0.3 1009835
06:00−7nw3129381 0.0 1010519
09:00−6nw5118990 0.1 1013774
12:00−4nw51180100 0.1 1013936
15:00−1wnw598367 0.1 10131056
18:00−2w41091100 0.1 1012690
21:00−3w4129392 0.1 1013566
4 march, thu
thu400:00−3w41192100 0.1 1012582
03:00−4wsw4119487 0.2 1010441
06:00−2wsw51392100 0.0 1006678
09:00−1wsw61487100 0.1 1003797
12:00+1wsw71487100 0.0 10011198
15:000wsw61292100 0.1 9991065
18:000wsw61296100 0.6 997951
21:000w61393100 1.3 997943
5 march, fri
fri500:00−3nw41093100 0.6 1000529
03:00−7nw379675 0.6 1004205
06:00−9wnw23960 0.0 100761
09:00−7nw24930 0.0 1009212
12:00−4wnw23790 0.0 1011580
15:00−3nw24760 0.0 1012799
18:00−7nw11868 0.0 101321
21:00−9e118821 0.0 101421